Weather History for Lake Charles, LA

Change the Weather History Date:

Monday, February 25, 2013

  Actual Average Record
Temperature  
Mean Temperature 62 °F -  
Max Temperature 73 °F 64 °F 77 °F (2002)
Min Temperature 50 °F 51 °F 42 °F (2003)
Degree Days  
Heating Degree Days 3    
Growing Degree Days 12 (Base 50)    
Moisture  
Dew Point 54 °F    
Average Humidity 76    
Maximum Humidity 100    
Minimum Humidity 24    
Precipitation  
Precipitation 0.03 in - - ()
Sea Level Pressure  
Sea Level Pressure 29.63 in    
Wind  
Wind Speed 7 mph (SE)    
Max Wind Speed 24 mph    
Max Gust Speed 38 mph    
Visibility 7 miles    
Events Fog , Rain , Thunderstorm    
Averages and records for this station are not official NWS values.
T = Trace of Precipitation, MM = Missing Value Source: NWS Daily Summary

Daily Weather History Graph

Daily Weather History Graph

Search for Another Location

Airport:

Trip Planner

Search our weather history database for the weather conditions in past years. The results will help you decide how hot, cold, wet, or windy it might be!

Date:

Astronomy

Feb. 25, 2013 Rise Set
Actual Time 6:42 AM CST 6:08 PM CST
Civil Twilight 6:18 AM CST 6:33 PM CST
Nautical Twilight 5:50 AM CST 7:00 PM CST
Astronomical Twilight 5:22 AM CST 7:28 PM CST
Moon 6:17 PM CST (2/25) 6:15 AM CST (2/25)
Length of Visible Light 12h 14m
Length of Day
11h 26m
Full, 100% of the Moon is Illuminated
Feb 25
Full
Feb 25
Full
Mar 4
Last Quarter
Mar 11
New
Mar 19
First Quarter

Hourly Weather History & Observations

Time (CST) Temp. Dew Point Humidity Pressure Visibility Wind Dir Wind Speed Gust Speed Precip Events Conditions
12:15 AM 61.3 °F 58.6 °F 91% 29.70 in 10.0 mi ENE 3.5 mph - N/A   Overcast
12:35 AM 61.0 °F 58.5 °F 91% 29.71 in 7.0 mi Calm Calm - 0.01 in   Overcast
12:55 AM 60.8 °F 58.1 °F 91% 29.70 in 7.0 mi East 3.5 mph - 0.01 in   Overcast
1:15 AM 60.8 °F 58.3 °F 91% 29.69 in 7.0 mi ENE 3.5 mph - N/A   Overcast
1:35 AM 60.8 °F 58.5 °F 92% 29.68 in 7.0 mi ENE 4.6 mph - N/A   Overcast
1:55 AM 60.8 °F 58.6 °F 93% 29.67 in 5.0 mi East 3.5 mph - N/A   Overcast
2:15 AM 61.0 °F 59.0 °F 93% 29.67 in 5.0 mi East 3.5 mph - N/A   Overcast
2:35 AM 61.0 °F 59.0 °F 93% 29.66 in 5.0 mi East 3.5 mph - N/A   Overcast
2:55 AM 61.2 °F 59.0 °F 93% 29.64 in 5.0 mi East 5.8 mph - N/A   Overcast
3:15 AM 61.3 °F 59.4 °F 93% 29.63 in 5.0 mi East 9.2 mph - N/A   Overcast
3:35 AM 61.7 °F 59.5 °F 93% 29.63 in 7.0 mi East 6.9 mph - 0.01 in   Overcast
3:55 AM 61.7 °F 59.7 °F 93% 29.63 in 7.0 mi East 3.5 mph - 0.01 in   Overcast
4:15 AM 61.9 °F 59.9 °F 93% 29.62 in 7.0 mi East 6.9 mph - N/A   Overcast
4:35 AM 62.1 °F 60.1 °F 93% 29.63 in 7.0 mi Calm Calm - N/A   Overcast
4:55 AM 62.4 °F 60.4 °F 93% 29.62 in 5.0 mi East 3.5 mph - N/A   Overcast
5:15 AM 62.6 °F 60.8 °F 94% 29.63 in 3.0 mi Calm Calm - N/A   Overcast
5:35 AM 63.0 °F 61.2 °F 94% 29.63 in 7.0 mi East 4.6 mph - 0.01 in   Overcast
5:55 AM 63.3 °F 61.5 °F 94% 29.63 in 10.0 mi ESE 6.9 mph - 0.01 in   Overcast
6:00 AM 62.6 °F 60.8 °F 94% 29.63 in 10.0 mi East 5.8 mph - N/A   Overcast
6:50 AM 64.4 °F 62.6 °F 94% 29.63 in 5.0 mi East 5.8 mph - N/A   Overcast
7:27 AM 64.4 °F 62.6 °F 94% 29.63 in 1.0 mi ESE 3.5 mph - N/A   Overcast
7:50 AM 64.4 °F 62.6 °F 94% 30.05 in 1.5 mi Calm Calm - N/A Fog Fog
8:50 AM 64.4 °F 64.4 °F 100% 29.66 in 0.5 mi Calm Calm - N/A Fog Fog
9:50 AM 66.2 °F 64.4 °F 94% 29.95 in 0.8 mi ESE 4.6 mph - N/A   Mist
10:55 AM 69.8 °F 66.2 °F 88% 29.61 in 1.0 mi ESE 5.8 mph - N/A   Overcast
11:05 AM 69.8 °F 66.2 °F 88% 29.61 in 1.0 mi ESE 5.8 mph - N/A Thunderstorm Overcast
11:45 AM 69.8 °F 66.2 °F 88% 29.58 in 3.0 mi SE 8.1 mph - N/A Rain , Thunderstorm Light Thunderstorms and Rain
12:15 PM 73.4 °F 66.2 °F 78% 29.55 in 7.0 mi SSE 11.5 mph - N/A Thunderstorm Thunderstorm
12:50 PM 71.6 °F 68.0 °F 88% 29.49 in 4.0 mi SSE 11.5 mph - N/A Thunderstorm Overcast
1:55 PM 73.4 °F 68.0 °F 83% 29.48 in 4.0 mi South 12.7 mph 20.7 mph N/A Thunderstorm Overcast
2:50 PM 69.8 °F 66.2 °F 88% 29.45 in 7.0 mi SSW 20.7 mph 25.3 mph N/A Thunderstorm Thunderstorm
3:45 PM 71.6 °F 68.0 °F 88% 29.45 in 7.0 mi SSW 10.4 mph - N/A   Overcast
4:50 PM 73.4 °F 46.4 °F 38% 29.47 in 10.0 mi WSW 23.0 mph 29.9 mph N/A   Scattered Clouds
5:55 PM 69.8 °F 37.4 °F 31% 29.48 in 10.0 mi WSW 10.4 mph 16.1 mph N/A   Clear
6:55 PM 66.2 °F 28.4 °F 24% 29.50 in 10.0 mi WSW 18.4 mph 27.6 mph N/A   Clear
7:50 PM 62.6 °F 28.4 °F 27% 29.55 in 10.0 mi WSW 13.8 mph 25.3 mph N/A   Clear
8:55 PM 59.0 °F 28.4 °F 31% 29.60 in 10.0 mi WSW 21.9 mph 38.0 mph N/A   Clear
9:45 PM 55.4 °F 28.4 °F 36% 29.63 in 10.0 mi West 24.2 mph 38.0 mph N/A   Clear
10:15 PM 54.7 °F 28.8 °F 37% 29.65 in 10.0 mi West 19.6 mph 36.8 mph N/A   Clear
10:35 PM 53.6 °F 29.8 °F 40% 29.66 in 10.0 mi West 17.3 mph 33.4 mph N/A   Clear
10:55 PM 52.9 °F 29.5 °F 41% 29.66 in 10.0 mi West 18.4 mph 29.9 mph N/A   Clear
11:15 PM 52.5 °F 30.4 °F 43% 29.67 in 10.0 mi West 16.1 mph 28.8 mph N/A   Clear
11:35 PM 51.4 °F 30.0 °F 44% 29.67 in 10.0 mi West 21.9 mph 28.8 mph N/A   Clear
11:55 PM 50.9 °F 30.0 °F 45% 29.68 in 10.0 mi WSW 20.7 mph 27.6 mph N/A   Clear